QPF
0.01 0.00 0.01 0.01 0.00 0.00 0.01 0.01 0.01 0.01 0.03 0.04 0.07 0.10 0.15 0.22 0.25 0.19 0.15 0.09 0.07 0.07 0.06 0.04 0.03 0.02 0.02 0.01 0.01 0.01 0.01 0.01 0.00 0.00 0.00 0.00 0.00 0.00 0.00 0.00 0.00 0.00 0.00
0.00 0.00 0.00 0.00 0.01 0.00 0.00 0.00 0.01 0.01 0.02 0.03 0.05 0.07 0.10 0.17 0.18 0.11 0.10 0.07 0.07 0.07 0.07 0.06 0.05 0.03 0.03 0.02 0.02 0.01 0.02 0.01 0.00 0.00 0.00 0.00 0.00 0.00 0.00 0.00 0.01 0.00 0.00
0.00 0.00 0.00 0.00 0.00 0.00 0.00 0.01 0.01 0.01 0.01 0.01 0.02 0.04 0.07 0.09 0.10 0.12 0.08 0.05 0.04 0.08 0.07 0.07 0.07 0.06 0.06 0.05 0.03 0.03 0.03 0.02 0.01 0.00 0.00 0.00 0.00 0.00 0.00 0.01 0.01 0.00 0.00
0.00 0.00 0.00 0.00 0.00 0.00 0.00 0.01 0.01 0.00 0.00 0.01 0.01 0.03 0.04 0.05 0.06 0.10 0.11 0.06 0.04 0.04 0.05 0.07 0.07 0.08 0.07 0.06 0.05 0.05 0.04 0.03 0.02 0.02 0.01 0.01 0.01 0.00 0.00 0.00 0.00 0.00 0.00
0.00 0.00 0.00 0.00 0.00 0.00 0.00 0.00 0.00 0.00 0.00 0.01 0.01 0.02 0.02 0.03 0.03 0.04 0.06 0.05 0.04 0.06 0.06 0.05 0.05 0.06 0.07 0.09 0.09 0.09 0.08 0.06 0.04 0.03 0.02 0.02 0.02 0.01 0.00 0.00 0.00 0.00 0.00
0.00 0.00 0.00 0.00 0.00 0.00 0.00 0.00 0.00 0.00 0.00 0.00 0.01 0.01 0.01 0.01 0.02 0.02 0.03 0.04 0.05 0.05 0.05 0.03 0.03 0.03 0.06 0.09 0.10 0.11 0.12 0.10 0.07 0.05 0.04 0.03 0.02 0.01 0.01 0.01 0.00 0.00 0.00
0.00 0.00 0.00 0.00 0.00 0.00 0.00 0.00 0.00 0.00 0.00 0.00 0.00 0.00 0.00 0.01 0.01 0.01 0.01 0.01 0.02 0.02 0.04 0.03 0.03 0.01 0.02 0.05 0.06 0.07 0.09 0.10 0.08 0.06 0.05 0.05 0.05 0.03 0.02 0.01 0.01 0.00 0.00
0.00 0.00 0.00 0.00 0.00 0.00 0.00 0.00 0.00 0.00 0.00 0.00 0.00 0.00 0.00 0.01 0.00 0.00 0.01 0.00 0.01 0.01 0.01 0.01 0.01 0.01 0.01 0.01 0.01 0.04 0.06 0.08 0.08 0.07 0.06 0.06 0.06 0.05 0.04 0.02 0.01 0.01 0.01
0.00 0.00 0.00 0.00 0.00 0.00 0.00 0.00 0.00 0.00 0.00 0.00 0.00 0.00 0.00 0.00 0.00 0.00 0.00 0.00 0.00 0.00 0.00 0.00 0.01 0.01 0.01 0.01 0.01 0.02 0.04 0.05 0.06 0.08 0.08 0.06 0.05 0.05 0.05 0.05 0.04 0.03 0.02
0.00 0.00 0.00 0.00 0.00 0.00 0.00 0.00 0.00 0.00 0.00 0.00 0.00 0.00 0.00 0.00 0.00 0.00 0.00 0.00 0.00 0.00 0.00 0.00 0.00 0.01 0.01 0.01 0.01 0.01 0.01 0.02 0.04 0.07 0.08 0.06 0.05 0.04 0.04 0.06 0.07 0.07 0.05
0.00 0.00 0.00 0.00 0.00 0.00 0.00 0.00 0.00 0.00 0.00 0.00 0.00 0.00 0.00 0.00 0.00 0.00 0.00 0.00 0.00 0.00 0.00 0.00 0.00 0.00 0.00 0.00 0.00 0.00 0.00 0.01 0.02 0.02 0.04 0.05 0.06 0.06 0.05 0.05 0.06 0.08 0.09
0.00 0.00 0.00 0.00 0.00 0.00 0.00 0.00 0.00 0.00 0.00 0.00 0.00 0.00 0.00 0.00 0.00 0.00 0.00 0.00 0.00 0.00 0.00 0.00 0.00 0.00 0.00 0.00 0.00 0.00 0.00 0.00 0.00 0.00 0.01 0.02 0.03 0.03 0.04 0.04 0.05 0.07 0.08
0.00 0.00 0.00 0.00 0.00 0.00 0.00 0.00 0.00 0.00 0.00 0.00 0.00 0.00 0.00 0.00 0.00 0.00 0.00 0.00 0.00 0.00 0.00 0.00 0.00 0.00 0.00 0.00 0.00 0.00 0.00 0.00 0.00 0.00 0.00 0.00 0.00 0.01 0.01 0.02 0.03 0.04 0.05
0.00 0.00 0.00 0.00 0.00 0.00 0.00 0.00 0.00 0.00 0.00 0.00 0.00 0.00 0.00 0.00 0.00 0.00 0.00 0.00 0.00 0.00 0.00 0.00 0.00 0.00 0.00 0.00 0.00 0.00 0.00 0.00 0.00 0.00 0.00 0.00 0.00 0.00 0.01 0.01 0.01 0.01 0.02
0.00 0.00 0.00 0.00 0.00 0.00 0.00 0.00 0.00 0.00 0.00 0.00 0.00 0.00 0.00 0.00 0.00 0.00 0.00 0.00 0.00 0.00 0.00 0.00 0.00 0.00 0.00 0.00 0.00 0.00 0.00 0.00 0.00 0.00 0.00 0.00 0.00 0.00 0.00 0.00 0.00 0.00 0.00
0.00 0.00 0.00 0.00 0.00 0.00 0.00 0.00 0.00 0.00 0.00 0.00 0.00 0.00 0.00 0.00 0.00 0.00 0.00 0.00 0.00 0.00 0.00 0.00 0.00 0.00 0.00 0.00 0.00 0.00 0.00 0.00 0.00 0.00 0.00 0.00 0.00 0.00 0.00 0.00 0.00 0.00 0.00
0.00 0.00 0.00 0.00 0.00 0.00 0.00 0.00 0.00 0.00 0.00 0.00 0.00 0.00 0.00 0.00 0.00 0.00 0.00 0.00 0.00 0.00 0.00 0.00 0.00 0.00 0.00 0.00 0.00 0.00 0.00 0.00 0.00 0.00 0.00 0.00 0.00 0.00 0.00 0.00 0.00 0.00 0.00
0.01 0.01 0.00 0.00 0.00 0.00 0.00 0.00 0.00 0.00 0.00 0.00 0.00 0.00 0.00 0.00 0.00 0.00 0.00 0.00 0.00 0.00 0.00 0.00 0.00 0.00 0.00 0.00 0.00 0.00 0.00 0.00 0.00 0.00 0.00 0.00 0.00 0.00 0.00 0.00 0.00 0.00 0.00
0.02 0.02 0.01 0.01 0.01 0.00 0.00 0.00 0.00 0.00 0.00 0.00 0.00 0.00 0.00 0.00 0.00 0.00 0.00 0.00 0.00 0.01 0.01 0.00 0.00 0.00 0.00 0.00 0.00 0.00 0.00 0.00 0.00 0.00 0.00 0.00 0.00 0.00 0.00 0.00 0.00 0.00 0.00
0.03 0.03 0.03 0.03 0.02 0.02 0.01 0.01 0.00 0.00 0.00 0.00 0.00 0.00 0.00 0.00 0.00 0.00 0.01 0.01 0.01 0.01 0.01 0.01 0.00 0.00 0.00 0.00 0.00 0.00 0.00 0.00 0.00 0.00 0.00 0.00 0.00 0.00 0.00 0.00 0.00 0.00 0.00
0.07 0.08 0.07 0.07 0.05 0.05 0.04 0.03 0.02 0.02 0.01 0.01 0.00 0.00 0.01 0.01 0.02 0.02 0.03 0.02 0.03 0.02 0.01 0.01 0.01 0.00 0.00 0.00 0.00 0.00 0.00 0.00 0.00 0.00 0.00 0.00 0.00 0.00 0.00 0.00 0.00 0.00 0.00
0.17 0.15 0.15 0.15 0.13 0.12 0.10 0.08 0.05 0.03 0.02 0.02 0.01 0.01 0.02 0.02 0.02 0.03 0.04 0.05 0.05 0.04 0.03 0.02 0.02 0.01 0.00 0.00 0.01 0.01 0.01 0.00 0.00 0.00 0.00 0.00 0.00 0.00 0.00 0.00 0.00 0.00 0.00
0.22 0.23 0.24 0.21 0.18 0.17 0.17 0.14 0.11 0.07 0.05 0.04 0.04 0.03 0.03 0.03 0.03 0.03 0.04 0.05 0.05 0.05 0.05 0.04 0.03 0.01 0.01 0.01 0.02 0.02 0.01 0.01 0.00 0.00 0.00 0.00 0.00 0.00 0.00 0.00 0.00 0.00 0.00
0.23 0.23 0.22 0.19 0.17 0.16 0.15 0.13 0.11 0.09 0.08 0.07 0.06 0.05 0.04 0.03 0.04 0.04 0.04 0.04 0.03 0.03 0.03 0.04 0.03 0.02 0.02 0.02 0.03 0.03 0.02 0.01 0.00 0.00 0.00 0.00 0.00 0.00 0.00 0.00 0.00 0.00 0.00
0.14 0.12 0.12 0.11 0.10 0.10 0.10 0.10 0.10 0.08 0.06 0.05 0.05 0.04 0.04 0.03 0.03 0.03 0.02 0.02 0.01 0.01 0.02 0.02 0.02 0.02 0.01 0.02 0.04 0.05 0.03 0.02 0.01 0.00 0.00 0.00 0.00 0.00 0.00 0.00 0.00 0.00 0.00
0.10 0.10 0.10 0.10 0.09 0.09 0.09 0.10 0.11 0.08 0.07 0.06 0.04 0.04 0.03 0.02 0.01 0.01 0.01 0.01 0.01 0.01 0.01 0.01 0.02 0.01 0.01 0.01 0.03 0.04 0.04 0.03 0.02 0.01 0.00 0.01 0.00 0.00 0.00 0.00 0.00 0.00 0.00
MSLP
1016.24 1016.17 1016.08 1016.03 1016.06 1016.19 1016.41 1016.72 1017.06 1017.40 1017.69 1017.91 1018.05 1018.11 1018.13 1018.12 1018.12 1018.16 1018.22 1018.33 1018.46 1018.61 1018.77 1018.92 1019.07 1019.22 1019.39 1019.56 1019.76 1019.97 1020.19 1020.42 1020.65 1020.89 1021.13 1021.37 1021.61 1021.83 1022.05 1022.24 1022.40 1022.53 1022.64
1016.27 1016.18 1016.10 1016.07 1016.12 1016.27 1016.51 1016.83 1017.19 1017.54 1017.84 1018.07 1018.21 1018.27 1018.27 1018.23 1018.18 1018.14 1018.13 1018.16 1018.24 1018.35 1018.49 1018.66 1018.85 1019.06 1019.28 1019.51 1019.74 1019.96 1020.19 1020.41 1020.63 1020.86 1021.10 1021.35 1021.60 1021.85 1022.09 1022.29 1022.46 1022.60 1022.70
1016.33 1016.25 1016.19 1016.19 1016.28 1016.46 1016.72 1017.05 1017.40 1017.75 1018.04 1018.26 1018.40 1018.45 1018.43 1018.35 1018.25 1018.13 1018.04 1017.99 1017.98 1018.04 1018.16 1018.34 1018.56 1018.82 1019.10 1019.38 1019.65 1019.90 1020.13 1020.35 1020.57 1020.79 1021.03 1021.28 1021.54 1021.81 1022.06 1022.29 1022.47 1022.62 1022.73
1016.43 1016.37 1016.35 1016.39 1016.52 1016.74 1017.02 1017.35 1017.69 1018.02 1018.29 1018.50 1018.63 1018.67 1018.63 1018.52 1018.36 1018.18 1018.01 1017.87 1017.78 1017.77 1017.84 1018.00 1018.24 1018.53 1018.85 1019.17 1019.48 1019.76 1020.01 1020.24 1020.45 1020.66 1020.89 1021.14 1021.42 1021.69 1021.96 1022.21 1022.42 1022.59 1022.73
1016.55 1016.52 1016.54 1016.65 1016.83 1017.08 1017.38 1017.70 1018.02 1018.32 1018.57 1018.76 1018.87 1018.91 1018.87 1018.74 1018.56 1018.33 1018.09 1017.86 1017.69 1017.59 1017.60 1017.72 1017.94 1018.23 1018.57 1018.93 1019.26 1019.57 1019.83 1020.05 1020.26 1020.47 1020.69 1020.95 1021.22 1021.51 1021.80 1022.06 1022.29 1022.49 1022.65
1016.68 1016.67 1016.75 1016.91 1017.14 1017.43 1017.73 1018.05 1018.34 1018.60 1018.83 1019.00 1019.12 1019.17 1019.14 1019.03 1018.85 1018.60 1018.31 1018.01 1017.76 1017.58 1017.51 1017.56 1017.73 1018.00 1018.32 1018.68 1019.02 1019.33 1019.59 1019.82 1020.02 1020.22 1020.45 1020.69 1020.97 1021.27 1021.56 1021.84 1022.09 1022.30 1022.48
1016.78 1016.81 1016.94 1017.15 1017.42 1017.73 1018.04 1018.33 1018.60 1018.83 1019.02 1019.19 1019.32 1019.41 1019.43 1019.37 1019.21 1018.98 1018.67 1018.34 1018.02 1017.76 1017.60 1017.56 1017.66 1017.86 1018.14 1018.46 1018.78 1019.08 1019.33 1019.55 1019.75 1019.95 1020.16 1020.41 1020.68 1020.98 1021.27 1021.56 1021.81 1022.03 1022.22
1016.85 1016.91 1017.08 1017.33 1017.64 1017.96 1018.26 1018.53 1018.76 1018.96 1019.13 1019.30 1019.46 1019.60 1019.69 1019.70 1019.62 1019.43 1019.14 1018.80 1018.44 1018.11 1017.86 1017.73 1017.73 1017.85 1018.06 1018.32 1018.59 1018.85 1019.08 1019.29 1019.47 1019.66 1019.87 1020.11 1020.38 1020.66 1020.95 1021.22 1021.47 1021.68 1021.87
1016.88 1016.96 1017.17 1017.45 1017.78 1018.11 1018.39 1018.63 1018.82 1018.99 1019.15 1019.33 1019.52 1019.72 1019.89 1020.00 1020.01 1019.89 1019.66 1019.33 1018.95 1018.58 1018.26 1018.04 1017.94 1017.96 1018.07 1018.25 1018.46 1018.67 1018.86 1019.04 1019.21 1019.39 1019.59 1019.82 1020.07 1020.34 1020.61 1020.86 1021.08 1021.27 1021.44
1016.88 1016.99 1017.22 1017.53 1017.87 1018.18 1018.45 1018.65 1018.80 1018.93 1019.08 1019.26 1019.50 1019.76 1020.01 1020.21 1020.32 1020.29 1020.13 1019.84 1019.48 1019.08 1018.72 1018.43 1018.24 1018.16 1018.18 1018.27 1018.40 1018.54 1018.69 1018.83 1018.98 1019.14 1019.33 1019.54 1019.78 1020.03 1020.28 1020.50 1020.69 1020.84 1020.97
1016.88 1017.02 1017.27 1017.59 1017.93 1018.23 1018.47 1018.63 1018.75 1018.84 1018.97 1019.15 1019.40 1019.71 1020.03 1020.32 1020.51 1020.58 1020.49 1020.26 1019.93 1019.55 1019.16 1018.82 1018.57 1018.41 1018.35 1018.35 1018.40 1018.48 1018.57 1018.67 1018.78 1018.92 1019.09 1019.29 1019.51 1019.74 1019.96 1020.15 1020.30 1020.41 1020.50
1016.87 1017.04 1017.32 1017.65 1017.98 1018.27 1018.48 1018.61 1018.69 1018.75 1018.85 1019.02 1019.28 1019.60 1019.97 1020.31 1020.57 1020.71 1020.70 1020.54 1020.26 1019.91 1019.53 1019.18 1018.89 1018.67 1018.54 1018.47 1018.45 1018.45 1018.48 1018.54 1018.61 1018.73 1018.88 1019.06 1019.26 1019.47 1019.66 1019.82 1019.94 1020.01 1020.06
1016.85 1017.05 1017.35 1017.70 1018.03 1018.31 1018.50 1018.61 1018.65 1018.69 1018.76 1018.90 1019.14 1019.47 1019.84 1020.20 1020.51 1020.70 1020.74 1020.65 1020.43 1020.13 1019.78 1019.45 1019.15 1018.91 1018.73 1018.61 1018.52 1018.47 1018.44 1018.44 1018.47 1018.55 1018.67 1018.83 1019.02 1019.21 1019.38 1019.52 1019.61 1019.65 1019.67
1016.78 1017.02 1017.34 1017.71 1018.05 1018.33 1018.52 1018.61 1018.64 1018.66 1018.70 1018.82 1019.03 1019.32 1019.67 1020.03 1020.34 1020.55 1020.64 1020.60 1020.44 1020.20 1019.91 1019.62 1019.34 1019.10 1018.90 1018.74 1018.61 1018.49 1018.41 1018.35 1018.33 1018.37 1018.46 1018.59 1018.76 1018.93 1019.09 1019.22 1019.30 1019.33 1019.33
1016.62 1016.90 1017.25 1017.63 1017.99 1018.29 1018.48 1018.59 1018.63 1018.64 1018.66 1018.75 1018.92 1019.18 1019.48 1019.80 1020.09 1020.30 1020.41 1020.41 1020.31 1020.14 1019.92 1019.68 1019.45 1019.23 1019.03 1018.85 1018.68 1018.52 1018.37 1018.26 1018.19 1018.17 1018.22 1018.32 1018.47 1018.63 1018.78 1018.90 1018.98 1019.01 1019.01
1016.35 1016.65 1017.03 1017.43 1017.82 1018.14 1018.36 1018.50 1018.56 1018.58 1018.61 1018.68 1018.81 1019.02 1019.27 1019.54 1019.79 1019.99 1020.10 1020.13 1020.08 1019.96 1019.81 1019.64 1019.46 1019.28 1019.09 1018.91 1018.71 1018.51 1018.32 1018.14 1018.02 1017.95 1017.94 1018.01 1018.12 1018.27 1018.41 1018.53 1018.62 1018.66 1018.67
1015.95 1016.27 1016.66 1017.08 1017.49 1017.84 1018.11 1018.29 1018.39 1018.44 1018.48 1018.55 1018.66 1018.82 1019.03 1019.25 1019.45 1019.62 1019.72 1019.77 1019.75 1019.69 1019.60 1019.49 1019.36 1019.23 1019.07 1018.89 1018.68 1018.45 1018.21 1017.99 1017.80 1017.67 1017.62 1017.63 1017.71 1017.83 1017.96 1018.08 1018.17 1018.23 1018.26
1015.46 1015.77 1016.17 1016.60 1017.03 1017.42 1017.73 1017.96 1018.10 1018.20 1018.27 1018.34 1018.44 1018.58 1018.74 1018.91 1019.07 1019.21 1019.30 1019.35 1019.36 1019.34 1019.30 1019.24 1019.16 1019.06 1018.93 1018.77 1018.55 1018.30 1018.03 1017.77 1017.53 1017.35 1017.23 1017.20 1017.22 1017.30 1017.41 1017.52 1017.62 1017.69 1017.73
1014.95 1015.24 1015.63 1016.07 1016.51 1016.92 1017.27 1017.53 1017.73 1017.86 1017.96 1018.05 1018.15 1018.27 1018.40 1018.54 1018.67 1018.77 1018.85 1018.90 1018.92 1018.92 1018.91 1018.89 1018.85 1018.79 1018.68 1018.53 1018.32 1018.06 1017.77 1017.47 1017.20 1016.96 1016.79 1016.69 1016.67 1016.70 1016.77 1016.85 1016.94 1017.01 1017.07
1014.51 1014.79 1015.15 1015.58 1016.02 1016.44 1016.81 1017.10 1017.33 1017.49 1017.61 1017.72 1017.82 1017.93 1018.04 1018.16 1018.25 1018.34 1018.39 1018.43 1018.45 1018.46 1018.46 1018.45 1018.44 1018.39 1018.31 1018.17 1017.97 1017.72 1017.42 1017.11 1016.80 1016.52 1016.30 1016.14 1016.05 1016.02 1016.04 1016.09 1016.14 1016.20 1016.26
1014.26 1014.51 1014.85 1015.26 1015.69 1016.10 1016.46 1016.76 1016.99 1017.17 1017.30 1017.41 1017.51 1017.61 1017.71 1017.80 1017.87 1017.93 1017.96 1017.98 1017.98 1017.98 1017.97 1017.97 1017.95 1017.91 1017.83 1017.70 1017.52 1017.28 1016.99 1016.67 1016.34 1016.04 1015.77 1015.56 1015.41 1015.31 1015.26 1015.25 1015.26 1015.29 1015.34
1014.27 1014.50 1014.82 1015.20 1015.61 1015.99 1016.33 1016.61 1016.83 1016.99 1017.11 1017.21 1017.30 1017.38 1017.46 1017.52 1017.58 1017.61 1017.61 1017.60 1017.57 1017.53 1017.50 1017.46 1017.42 1017.37 1017.29 1017.16 1016.99 1016.76 1016.49 1016.17 1015.84 1015.52 1015.22 1014.96 1014.74 1014.58 1014.46 1014.38 1014.34 1014.33 1014.35
1014.56 1014.78 1015.09 1015.46 1015.83 1016.19 1016.49 1016.73 1016.91 1017.03 1017.12 1017.19 1017.24 1017.30 1017.35 1017.39 1017.41 1017.40 1017.37 1017.32 1017.24 1017.16 1017.07 1016.99 1016.91 1016.82 1016.72 1016.59 1016.42 1016.20 1015.94 1015.64 1015.32 1014.98 1014.66 1014.35 1014.08 1013.86 1013.67 1013.52 1013.42 1013.35 1013.33
1015.10 1015.34 1015.65 1016.00 1016.36 1016.67 1016.93 1017.12 1017.25 1017.32 1017.36 1017.37 1017.38 1017.40 1017.41 1017.41 1017.39 1017.35 1017.27 1017.16 1017.03 1016.89 1016.74 1016.59 1016.45 1016.31 1016.17 1016.02 1015.84 1015.63 1015.37 1015.09 1014.77 1014.43 1014.09 1013.75 1013.43 1013.15 1012.90 1012.68 1012.52 1012.40 1012.34
1015.79 1016.06 1016.39 1016.75 1017.09 1017.38 1017.59 1017.73 1017.80 1017.81 1017.78 1017.74 1017.70 1017.66 1017.62 1017.58 1017.51 1017.42 1017.29 1017.12 1016.93 1016.71 1016.49 1016.26 1016.06 1015.86 1015.67 1015.48 1015.27 1015.05 1014.80 1014.51 1014.19 1013.85 1013.49 1013.13 1012.78 1012.44 1012.14 1011.87 1011.65 1011.49 1011.39
1016.50 1016.82 1017.18 1017.55 1017.89 1018.16 1018.34 1018.44 1018.45 1018.40 1018.32 1018.21 1018.11 1018.01 1017.92 1017.82 1017.71 1017.56 1017.37 1017.15 1016.89 1016.60 1016.30 1016.01 1015.72 1015.46 1015.21 1014.97 1014.73 1014.48 1014.21 1013.91 1013.59 1013.23 1012.86 1012.47 1012.09 1011.72 1011.37 1011.06 1010.80 1010.60 1010.46
Thickness
5745 5744 5743 5742 5740 5738 5736 5735 5734 5732 5730 5729 5728 5727 5726 5726 5725 5725 5725 5724 5723 5723 5722 5721 5721 5720 5719 5719 5718 5718 5717 5717 5717 5716 5716 5716 5715 5715 5714 5714 5713 5712 5711
5744 5742 5741 5740 5739 5737 5736 5734 5733 5731 5729 5728 5727 5726 5726 5726 5724 5723 5723 5722 5722 5722 5721 5720 5720 5719 5718 5717 5716 5715 5715 5715 5714 5714 5714 5714 5714 5713 5713 5712 5712 5711 5710
5742 5741 5739 5738 5737 5736 5735 5733 5732 5730 5729 5727 5726 5725 5725 5725 5724 5723 5722 5722 5721 5721 5720 5720 5719 5718 5717 5716 5715 5714 5713 5713 5712 5712 5712 5712 5711 5711 5711 5711 5710 5710 5709
5741 5739 5737 5736 5736 5735 5734 5732 5729 5727 5726 5725 5724 5724 5724 5724 5723 5723 5722 5721 5721 5720 5720 5719 5719 5717 5716 5715 5714 5713 5712 5711 5711 5710 5710 5709 5709 5709 5709 5709 5709 5708 5708
5738 5737 5735 5735 5735 5734 5732 5731 5727 5726 5723 5723 5723 5723 5723 5723 5722 5722 5722 5721 5721 5720 5720 5719 5718 5717 5716 5715 5714 5712 5711 5710 5709 5708 5708 5707 5707 5707 5707 5707 5707 5707 5706
5736 5735 5734 5733 5733 5732 5729 5728 5726 5725 5723 5722 5723 5722 5721 5721 5722 5722 5721 5721 5720 5720 5719 5719 5719 5717 5716 5715 5714 5712 5711 5709 5708 5707 5706 5706 5705 5705 5705 5705 5705 5705 5704
5734 5733 5732 5731 5731 5729 5727 5727 5725 5723 5722 5722 5719 5716 5717 5719 5720 5721 5721 5720 5720 5720 5719 5719 5718 5717 5717 5715 5714 5712 5711 5709 5708 5706 5705 5704 5704 5703 5703 5703 5703 5703 5703
5732 5732 5731 5730 5729 5727 5726 5725 5724 5721 5721 5721 5716 5710 5707 5710 5715 5720 5720 5720 5720 5720 5719 5719 5718 5717 5716 5715 5714 5713 5711 5710 5708 5706 5705 5704 5703 5703 5702 5702 5701 5701 5701
5730 5730 5729 5729 5728 5726 5724 5723 5723 5721 5717 5718 5718 5713 5705 5702 5707 5714 5717 5718 5719 5719 5719 5719 5718 5717 5716 5715 5714 5713 5711 5710 5708 5706 5705 5704 5703 5702 5701 5701 5700 5700 5700
5729 5729 5728 5727 5726 5725 5723 5723 5722 5721 5719 5715 5716 5716 5714 5712 5706 5705 5711 5715 5717 5717 5717 5718 5717 5716 5715 5714 5713 5712 5711 5710 5708 5707 5705 5704 5703 5702 5701 5700 5699 5699 5698
5727 5727 5727 5726 5725 5724 5723 5722 5721 5719 5718 5715 5714 5713 5713 5711 5709 5705 5702 5707 5711 5714 5716 5716 5716 5715 5714 5713 5712 5711 5710 5709 5707 5706 5705 5704 5703 5702 5701 5700 5699 5698 5698
5724 5725 5725 5724 5723 5722 5721 5720 5719 5718 5716 5715 5713 5712 5710 5708 5706 5704 5701 5701 5702 5708 5713 5714 5714 5713 5713 5712 5711 5710 5708 5707 5706 5705 5704 5703 5702 5701 5700 5699 5699 5698 5697
5722 5723 5724 5722 5722 5721 5720 5719 5718 5716 5715 5713 5712 5710 5709 5708 5708 5705 5701 5698 5698 5702 5707 5710 5711 5711 5710 5710 5709 5708 5706 5705 5704 5703 5701 5700 5700 5699 5698 5698 5697 5697 5696
5723 5724 5723 5722 5721 5720 5719 5717 5716 5714 5713 5712 5711 5709 5708 5707 5706 5705 5701 5697 5693 5694 5698 5703 5708 5709 5708 5708 5707 5705 5704 5703 5702 5700 5699 5698 5697 5696 5696 5695 5695 5695 5694
5724 5723 5722 5720 5719 5718 5717 5715 5714 5712 5711 5710 5709 5707 5706 5705 5704 5703 5701 5698 5692 5687 5688 5696 5701 5705 5705 5704 5704 5702 5701 5700 5699 5698 5697 5696 5695 5694 5694 5693 5692 5692 5691
5724 5722 5721 5719 5717 5716 5714 5713 5711 5710 5708 5706 5705 5704 5703 5702 5700 5699 5698 5696 5693 5688 5685 5691 5695 5700 5701 5701 5700 5698 5698 5697 5696 5695 5695 5694 5693 5692 5691 5691 5690 5689 5688
5721 5720 5719 5717 5715 5713 5711 5709 5708 5706 5704 5703 5702 5700 5698 5698 5696 5695 5693 5691 5689 5686 5682 5687 5691 5695 5695 5695 5695 5694 5693 5693 5693 5692 5692 5691 5690 5690 5689 5688 5687 5687 5686
5719 5718 5717 5714 5712 5710 5709 5707 5705 5703 5701 5699 5698 5696 5694 5694 5691 5690 5688 5686 5685 5683 5680 5680 5684 5686 5689 5690 5690 5689 5689 5689 5689 5689 5689 5688 5688 5687 5686 5685 5685 5684 5683
5718 5716 5713 5711 5709 5708 5706 5704 5702 5700 5698 5696 5695 5693 5691 5689 5687 5685 5684 5682 5681 5680 5678 5676 5678 5679 5681 5682 5682 5683 5684 5684 5685 5685 5685 5685 5684 5684 5683 5683 5682 5681 5680
5714 5713 5711 5709 5707 5705 5703 5701 5699 5697 5695 5694 5692 5690 5688 5686 5684 5682 5680 5678 5677 5675 5673 5672 5672 5673 5674 5675 5673 5672 5674 5676 5678 5680 5681 5681 5681 5680 5680 5679 5679 5678 5677
5711 5709 5707 5704 5703 5701 5700 5697 5695 5693 5690 5689 5688 5686 5685 5683 5682 5679 5677 5675 5672 5670 5668 5666 5666 5666 5667 5666 5665 5667 5667 5670 5672 5674 5673 5675 5675 5675 5675 5675 5674 5674 5673
5704 5703 5701 5698 5696 5696 5694 5693 5690 5687 5685 5683 5681 5679 5679 5677 5676 5674 5672 5671 5668 5665 5662 5660 5660 5660 5662 5661 5661 5660 5659 5659 5662 5668 5664 5668 5669 5669 5670 5669 5669 5669 5669
5696 5694 5693 5690 5688 5687 5686 5684 5682 5679 5676 5674 5672 5670 5669 5669 5666 5664 5663 5663 5661 5659 5657 5655 5654 5655 5656 5656 5653 5651 5651 5652 5656 5661 5656 5659 5662 5662 5664 5664 5664 5664 5664
5687 5684 5682 5680 5678 5676 5675 5673 5672 5668 5665 5663 5660 5659 5656 5654 5653 5651 5650 5650 5650 5649 5648 5646 5646 5648 5649 5649 5647 5646 5646 5646 5649 5651 5649 5649 5654 5654 5658 5657 5658 5658 5658
5674 5671 5669 5668 5665 5662 5662 5660 5658 5655 5651 5648 5646 5645 5642 5640 5638 5637 5635 5634 5636 5637 5638 5637 5637 5638 5638 5638 5636 5634 5634 5632 5637 5642 5640 5639 5645 5645 5648 5650 5651 5651 5651
5662 5659 5656 5654 5651 5648 5647 5646 5644 5640 5635 5633 5631 5629 5627 5625 5624 5622 5620 5619 5620 5624 5625 5626 5627 5627 5627 5627 5626 5624 5623 5622 5626 5630 5633 5629 5632 5630 5634 5643 5643 5644 5644